Flag for Cameroon Weather past 2 weeks in Yaoundé, Cameroon

Now
75 °F

Partly sunny.


Feels Like: 75 °F
Forecast: 69 / 87 °F
Wind: 7 mph from Southwest

Location: Yaounde Airport

Current Time: Jan 27, 2015 at 9:30:08 AM

Latest Report: Jan 27, 2015 at 9:00 AM


Visibility: N/A

Pressure: 30.01 "Hg

Humidity: 83%

Dew point: 70 °F

Location of YaoundéLocation

Historic Weather in Yaoundé — Graph

°F

Yaoundé temperature yesterday

Maximum temperature yesterday: 90 °F (at 4:00 PM)
Minimum temperature yesterday: 70 °F (at 3:00 AM)
Average temperature yesterday: 77 °F

Past Weeks' High & Low Weather Summary

 TemperatureHumidityPressure
High91 °F (Jan 23, 3:00 PM)100% (Jan 13, 5:00 AM)30.09 "Hg (Jan 13, 5:00 AM)
Low52 °F (Jan 13, 4:00 AM)22% (Jan 12, 4:00 PM)29.86 "Hg (Jan 24, 3:00 PM)
Average74 °F72%29.99 "Hg
* Reported Jan 12 8:00 AM — Jan 27 8:00 AM, Yaoundé, Weather by CustomWeather, © 2014

Note: Actual official high and low records may vary slightly from our data, if they occured in-between our weather recording intervals... More about our weather records

Advertising

Yaoundé weather history for previous 24 hours

 ConditionsComfort  
Time TempWeatherWind HumidityBarometerVisibility
8:00 AM
Jan 27
72 °FScattered clouds.2 mph94%30.01 "HgN/A
7:00 AM70 °FPartly sunny.3 mph94%29.98 "Hg5 mi
6:00 AM70 °FPassing clouds.No wind88%29.98 "Hg5 mi
5:00 AM72 °FPassing clouds.3 mph88%29.98 "HgN/A
4:00 AM72 °FPassing clouds.5 mph88%29.98 "HgN/A
3:00 AM72 °FPassing clouds.3 mph88%29.95 "HgN/A
2:00 AM72 °FPassing clouds.5 mph94%29.98 "Hg5 mi
1:00 AM73 °FPassing clouds.6 mph89%29.98 "Hg5 mi
12:00 AM73 °FPassing clouds.5 mph94%29.98 "Hg5 mi
11:00 PM
Jan 26
73 °FPassing clouds.3 mph94%29.98 "Hg5 mi
10:00 PM75 °FPassing clouds.5 mph89%29.98 "Hg5 mi
9:00 PM77 °FPassing clouds.3 mph79%29.98 "HgN/A
8:00 PM77 °FPassing clouds.3 mph79%29.98 "HgN/A
7:00 PM81 °FPassing clouds.3 mph70%29.92 "HgN/A
6:00 PM82 °FScattered clouds.2 mph62%29.92 "HgN/A
5:00 PM86 °FPartly sunny.2 mph55%29.92 "HgN/A
4:00 PM90 °FPartly sunny.3 mph43%29.89 "HgN/A
3:00 PM88 °FPartly sunny.1 mph49%29.89 "HgN/A
2:00 PM86 °FPartly sunny.5 mph52%29.92 "HgN/A
1:00 PM86 °FPartly sunny.3 mph55%29.95 "HgN/A
12:00 PM84 °FPartly sunny.5 mph62%29.98 "Hg6 mi
10:00 AM77 °FPartly sunny.5 mph79%30.04 "Hg5 mi
9:00 AM73 °FPartly sunny.5 mph89%30.04 "Hg4 mi
Weather by CustomWeather, © 2014

See weather overviewHow to use our weather pages